loading
|

OV1-10 R/B, 2621

Orbit data source: Space-Track

OV1-10 R/B, 2621 is space debris in LEO originally from a launch on Sun, 11 Dec 1966 UTC launched from the Air Force Western Test Range (AFWTR). Debris objects in space refer to the collection of defunct objects orbiting the Earth. Examples of debris include non-operational satellites, rocket bodies, and fragments generated from explosions, collisions, or faulty payload assembly.

Loading next visibility...
Loading greatness...
OV1-10 R/B details
Identifier
2621, 1966-111C
Orbit
LEO
Last TLE update13 hours ago
Origin
Flag of USUSAF OAR (US)
ManufacturerABL
MissionSpacecraft
Bus & MotorALTAIR, Unknown motor
Mass125 kg wet, 125 kg dry
Launch date (UTC)
1966-12-11 (58 years ago)
Launch vehicleUnknown
Launch site
Air Force Western Test Range (AFWTR)
Object type
Payload
Rocket body
Debris
Shape & HBRCyl, 2.1 m
Radar Cross Section1.347 m², Large (>1 m²)

Expand to show TLE details & history

TLE from 13 hours ago
0 OV1-10 R/B
1 02621U 66111C   24278.51695244  .00003850  00000-0  45313-3 0  9990
2 02621  93.3980 299.7956 0060553 110.5261 250.2474 14.83596024 82261
Epoch: 2024-10-04T12:24Z
Definitive object data (Epoch: 2024-10-04T12:24:24.69Z)
Latitude-0.00013°
Longitude100.00625°
Altitude635.667 km
Speed7.532 km/s
True Right ascension19h 59m 10s
True Declination0° 00' 00"
Sunlit
Object was in daylight at TLE epoch
Predictive object data (real-time)
Latitude-8.57516°
Longitude100.74596°
Altitude641.677 km
Speed7.526 km/s
Apparent Right ascension21h 41m 16s
Apparent Declination-65° 11' 59"
Sunlit
Object is in daylight
Predictive observer data (real-time)
Local Sidereal Time19:15:29
Azimuth164.73° S
Elevation-18.886°
Doppler factor1
Orbital elements
Apogee657.232 km
Perigee572.542 km
Semi-major axis6,993.024 km
Eccentricity0.0060553
Inclination93.398°
RAAN299.7956°
Arg. of periapsis110.5261°
True anomaly249.59602°
Mean anomaly250.2474°
Eccentric anomaly249.92154°
Mean motion3.71147 °/min
BSTAR0.00045313
Period97 mins
No data available
No data available
Other satellites on launch #111 in the year 1966 (1966-12-11 UTC)

OV1-10 R/B Visibility forecast

Observer location: 39.9160978°, -105.1181434

OV1-10 R/B is not visible in the next 10 days
Span
Click to sort rows by Start time (UTC) header in descending order
Start Az.
Max El. time (UTC)
Max El. Az.
Max El.
End time (UTC)
End Az.